Satellite: FALCON
Catalog number: 30776
Epoch time:      09183.83951176
Element set:     604
Inclination:      035.4346 deg
RA of node:       004.4431 deg
Eccentricity:    0.0001496
Arg of perigee:   006.0267 deg
Mean anomaly:     354.0467 deg
Mean motion:   15.03263538 rev/day
Decay rate:       2.12e-06 rev/day^2
Epoch rev:           12745
Checksum:              274

Satellite: MAST
Catalog number: 31126
Epoch time:      09182.69739649
Element set:     629
Inclination:      097.9871 deg
RA of node:       236.8385 deg
Eccentricity:    0.0093719
Arg of perigee:   234.5531 deg
Mean anomaly:     124.6911 deg
Mean motion:   14.53503467 rev/day
Decay rate:       -4.1e-07 rev/day^2
Epoch rev:           11714
Checksum:              323

Satellite: CAPE1
Catalog number: 31130
Epoch time:      09183.85308816
Element set:     638
Inclination:      097.9895 deg
RA of node:       236.0895 deg
Eccentricity:    0.0101727
Arg of perigee:   236.2457 deg
Mean anomaly:     122.9001 deg
Mean motion:   14.52068853 rev/day
Decay rate:       1.02e-06 rev/day^2
Epoch rev:           11696
Checksum:              305

Satellite: COMPASS
Catalog number: 32787
Epoch time:      09183.83750027
Element set:     398
Inclination:      097.9421 deg
RA of node:       247.5295 deg
Eccentricity:    0.0015464
Arg of perigee:   346.1395 deg
Mean anomaly:     013.9386 deg
Mean motion:   14.81621145 rev/day
Decay rate:       1.43e-06 rev/day^2
Epoch rev:            6376
Checksum:              319

Satellite: AAUSAT2
Catalog number: 32788
Epoch time:      09182.72361495
Element set:    015
Inclination:      097.9399 deg
RA of node:       246.4851 deg
Eccentricity:    0.0015352
Arg of perigee:   351.3245 deg
Mean anomaly:     008.7693 deg
Mean motion:   14.81742629 rev/day
Decay rate:       -3.5e-07 rev/day^2
Epoch rev:           06360
Checksum:              319

Satellite: DO-64
Catalog number: 32789
Epoch time:      09183.75833362
Element set:     409
Inclination:      097.9469 deg
RA of node:       247.6843 deg
Eccentricity:    0.0015595
Arg of perigee:   345.9034 deg
Mean anomaly:     014.1740 deg
Mean motion:   14.81735569 rev/day
Decay rate:       5.34e-06 rev/day^2
Epoch rev:            6375
Checksum:              350

Satellite: CO-66
Catalog number: 32791
Epoch time:      09183.20671491
Element set:     391
Inclination:      097.9443 deg
RA of node:       246.9380 deg
Eccentricity:    0.0016209
Arg of perigee:   346.5680 deg
Mean anomaly:     013.5093 deg
Mean motion:   14.81449014 rev/day
Decay rate:       2.85e-06 rev/day^2
Epoch rev:            6363
Checksum:              316

Satellite: RS-30
Catalog number: 32953
Epoch time:      09183.72430702
Element set:    3447
Inclination:      082.5008 deg
RA of node:       246.9504 deg
Eccentricity:    0.0020136
Arg of perigee:   141.8948 deg
Mean anomaly:     218.3568 deg
Mean motion:   12.43002084 rev/day
Decay rate:        1.0e-07 rev/day^2
Epoch rev:            5032
Checksum:              268

Satellite: TACSAT-3
Catalog number: 35001
Epoch time:      09182.94252033
Element set:    39
Inclination:      040.4542 deg
RA of node:       152.4144 deg
Eccentricity:    0.0025955
Arg of perigee:   273.0360 deg
Mean anomaly:     086.7486 deg
Mean motion:   15.38875619 rev/day
Decay rate:    .1.440 e-04 rev/day^2
Epoch rev:           00662
Checksum:              282

Satellite: PHARMSAT
Catalog number: 35002
Epoch time:      09182.98577738
Element set:    67
Inclination:      040.4672 deg
RA of node:       151.8923 deg
Eccentricity:    0.0028645
Arg of perigee:   277.3848 deg
Mean anomaly:     082.3717 deg
Mean motion:   15.39646906 rev/day
Decay rate:    .1.470 e-04 rev/day^2
Epoch rev:           00662
Checksum:              323

Satellite: HAWKSAT1
Catalog number: 35003
Epoch time:      09183.82151972
Element set:      41
Inclination:      040.4694 deg
RA of node:       146.7958 deg
Eccentricity:    0.0029696
Arg of perigee:   284.9339 deg
Mean anomaly:     074.8193 deg
Mean motion:   15.39899600 rev/day
Decay rate:      1.113e-05 rev/day^2
Epoch rev:             676
Checksum:              325

Satellite: CP6
Catalog number: 35004
Epoch time:      09182.97403704
Element set:    38
Inclination:      040.4585 deg
RA of node:       151.7652 deg
Eccentricity:    0.0029251
Arg of perigee:   280.8623 deg
Mean anomaly:     078.9027 deg
Mean motion:   15.40127158 rev/day
Decay rate:    .3.168 e-04 rev/day^2
Epoch rev:           00662
Checksum:              290

Satellite: AEROCUB3
Catalog number: 35005
Epoch time:      09183.88716973
Element set:      35
Inclination:      040.4736 deg
RA of node:       146.4326 deg
Eccentricity:    0.0029254
Arg of perigee:   283.9219 deg
Mean anomaly:     075.8343 deg
Mean motion:   15.39957063 rev/day
Decay rate:      3.398e-05 rev/day^2
Epoch rev:             676
Checksum:              328

/EX



_______________________________________________
Via the Keps mailing list courtesy of AMSAT-NA
http://amsat.org/mailman/listinfo/keps

--- ViaMAIL!/WC v1.60d
 * Origin: Chowdanet (401-724-4410) telnet://chowdanet.com  (1:323/120)